Time,TemperatureF,DewpointF,PressureIn,WindDirection,WindDirectionDegrees,WindSpeedMPH,WindSpeedGustMPH,Humidity,HourlyPrecipIn,Conditions,Clouds,dailyrainin,SolarRadiationWatts/m^2,SoftwareType,DateUTC
2013-08-13 00:01:00,80.9,79.0,29.96,SW,234,5.0,15.0,94,0.00,,CLR,0.00,0.00,VWS V14.01,2013-08-13 04:01:00,
2013-08-13 00:06:00,80.8,78.9,29.95,SW,236,5.0,11.0,94,0.00,,CLR,0.00,0.00,VWS V14.01,2013-08-13 04:06:00,
2013-08-13 00:11:00,80.7,78.8,29.95,SSW,207,7.0,10.0,94,0.00,,CLR,0.00,0.00,VWS V14.01,2013-08-13 04:11:00,
2013-08-13 00:16:00,80.7,78.8,29.95,SSW,202,4.0,11.0,94,0.00,,CLR,0.00,0.00,VWS V14.01,2013-08-13 04:16:00,
2013-08-13 00:21:00,80.7,78.8,29.95,WSW,241,6.0,9.0,94,0.00,,CLR,0.00,0.00,VWS V14.01,2013-08-13 04:21:00,
2013-08-13 00:26:00,80.8,78.9,29.95,SSW,201,6.0,8.0,94,0.00,,CLR,0.00,0.00,VWS V14.01,2013-08-13 04:26:00,
2013-08-13 00:31:00,80.8,78.9,29.95,SW,229,2.0,9.0,94,0.00,,CLR,0.00,0.00,VWS V14.01,2013-08-13 04:31:00,
2013-08-13 00:36:00,80.8,78.9,29.95,SW,218,4.0,7.0,94,0.00,,CLR,0.00,0.00,VWS V14.01,2013-08-13 04:36:00,
2013-08-13 00:41:00,80.9,78.7,29.95,West,264,7.0,7.0,93,0.00,,CLR,0.00,0.00,VWS V14.01,2013-08-13 04:41:00,
2013-08-13 00:46:00,81.0,78.8,29.96,WSW,240,5.0,7.0,93,0.00,,CLR,0.00,0.00,VWS V14.01,2013-08-13 04:46:00,
2013-08-13 00:51:00,81.2,78.7,29.96,SSW,211,4.0,9.0,92,0.00,,CLR,0.00,0.00,VWS V14.01,2013-08-13 04:51:00,
2013-08-13 00:56:00,81.4,78.5,29.96,SW,232,3.0,8.0,91,0.00,,CLR,0.00,0.00,VWS V14.01,2013-08-13 04:56:00,
2013-08-13 01:01:00,81.6,78.7,29.96,SW,230,4.0,6.0,91,0.00,,CLR,0.00,0.00,VWS V14.01,2013-08-13 05:01:00,
2013-08-13 01:06:00,81.6,78.4,29.96,SW,236,4.0,6.0,90,0.00,,CLR,0.00,0.00,VWS V14.01,2013-08-13 05:06:00,
2013-08-13 01:11:00,81.8,78.6,29.96,WSW,250,3.0,8.0,90,0.00,,CLR,0.00,0.00,VWS V14.01,2013-08-13 05:11:00,
2013-08-13 01:16:00,81.9,78.7,29.96,SSW,204,7.0,9.0,90,0.00,,CLR,0.00,0.00,VWS V14.01,2013-08-13 05:16:00,
2013-08-13 01:21:00,82.0,78.8,29.96,SW,219,6.0,9.0,90,0.00,,CLR,0.00,0.00,VWS V14.01,2013-08-13 05:21:00,
2013-08-13 01:26:00,82.1,78.5,29.96,SW,233,5.0,8.0,89,0.00,,CLR,0.00,0.00,VWS V14.01,2013-08-13 05:26:00,
2013-08-13 01:31:00,82.1,78.5,29.96,SW,215,9.0,9.0,89,0.00,,CLR,0.00,0.00,VWS V14.01,2013-08-13 05:31:00,
2013-08-13 01:36:00,82.1,78.5,29.96,SW,228,5.0,11.0,89,0.00,,CLR,0.00,0.00,VWS V14.01,2013-08-13 05:36:00,
2013-08-13 01:41:00,82.1,78.5,29.96,SSW,213,3.0,7.0,89,0.00,,FEW050,0.00,0.00,VWS V14.01,2013-08-13 05:41:00,
2013-08-13 01:46:00,82.1,78.5,29.96,SSW,213,5.0,7.0,89,0.00,,FEW050,0.00,0.00,VWS V14.01,2013-08-13 05:46:00,
2013-08-13 01:51:00,82.1,78.5,29.96,SW,225,5.0,10.0,89,0.00,,FEW050,0.00,0.00,VWS V14.01,2013-08-13 05:51:00,
2013-08-13 01:56:00,82.0,78.4,29.95,WNW,290,4.0,8.0,89,0.00,,FEW050,0.00,0.00,VWS V14.01,2013-08-13 05:56:00,
2013-08-13 02:01:00,82.0,78.1,29.95,SSW,204,10.0,10.0,88,0.00,,CLR,0.00,0.00,VWS V14.01,2013-08-13 06:01:00,
2013-08-13 02:06:00,82.0,78.1,29.94,SW,224,8.0,10.0,88,0.00,,CLR,0.00,0.00,VWS V14.01,2013-08-13 06:06:00,
2013-08-13 02:11:00,82.0,78.1,29.94,SW,216,10.0,10.0,88,0.00,,CLR,0.00,0.00,VWS V14.01,2013-08-13 06:11:00,
2013-08-13 02:16:00,82.0,77.8,29.94,SW,221,4.0,8.0,87,0.00,,CLR,0.00,0.00,VWS V14.01,2013-08-13 06:16:00,
2013-08-13 02:21:00,82.0,77.8,29.94,SSW,210,6.0,9.0,87,0.00,,CLR,0.00,0.00,VWS V14.01,2013-08-13 06:21:00,
2013-08-13 02:26:00,82.0,77.8,29.94,WSW,257,4.0,8.0,87,0.00,,CLR,0.00,0.00,VWS V14.01,2013-08-13 06:26:00,
2013-08-13 02:31:00,82.0,77.8,29.94,SSW,195,7.0,10.0,87,0.00,,CLR,0.00,0.00,VWS V14.01,2013-08-13 06:31:00,
2013-08-13 02:36:00,82.0,77.8,29.94,WSW,250,5.0,7.0,87,0.00,,CLR,0.00,0.00,VWS V14.01,2013-08-13 06:36:00,
2013-08-13 02:41:00,82.0,77.8,29.94,SSW,205,5.0,7.0,87,0.00,,CLR,0.00,0.00,VWS V14.01,2013-08-13 06:41:00,
2013-08-13 02:46:00,81.9,77.7,29.94,SSW,209,7.0,13.0,87,0.00,,CLR,0.00,0.00,VWS V14.01,2013-08-13 06:46:00,
2013-08-13 02:51:00,81.9,77.7,29.93,SSW,212,6.0,8.0,87,0.00,,CLR,0.00,0.00,VWS V14.01,2013-08-13 06:51:00,
2013-08-13 02:56:00,81.9,77.7,29.94,SW,228,5.0,6.0,87,0.00,,CLR,0.00,0.00,VWS V14.01,2013-08-13 06:56:00,
2013-08-13 03:01:00,81.8,77.6,29.94,SW,233,2.0,7.0,87,0.00,,CLR,0.00,0.00,VWS V14.01,2013-08-13 07:01:00,
2013-08-13 03:06:00,81.7,77.5,29.93,SSW,205,7.0,8.0,87,0.00,,CLR,0.00,0.00,VWS V14.01,2013-08-13 07:06:00,
2013-08-13 03:11:00,81.7,77.5,29.94,SW,236,5.0,7.0,87,0.00,,CLR,0.00,0.00,VWS V14.01,2013-08-13 07:11:00,
2013-08-13 03:16:00,81.6,77.4,29.94,SW,225,3.0,7.0,87,0.00,,CLR,0.00,0.00,VWS V14.01,2013-08-13 07:16:00,
2013-08-13 03:21:00,81.5,77.3,29.94,WSW,238,3.0,9.0,87,0.00,,CLR,0.00,0.00,VWS V14.01,2013-08-13 07:21:00,
2013-08-13 03:26:00,81.5,77.3,29.93,SW,227,3.0,10.0,87,0.00,,CLR,0.00,0.00,VWS V14.01,2013-08-13 07:26:00,
2013-08-13 03:31:00,81.4,77.2,29.93,SW,222,4.0,8.0,87,0.00,,CLR,0.00,0.00,VWS V14.01,2013-08-13 07:31:00,
2013-08-13 03:36:00,81.4,77.2,29.93,West,269,3.0,8.0,87,0.00,,CLR,0.00,0.00,VWS V14.01,2013-08-13 07:36:00,
2013-08-13 03:41:00,81.3,77.1,29.93,SW,223,5.0,10.0,87,0.00,,CLR,0.00,0.00,VWS V14.01,2013-08-13 07:41:00,
2013-08-13 03:46:00,81.3,77.1,29.93,SSW,204,4.0,8.0,87,0.00,,CLR,0.00,0.00,VWS V14.01,2013-08-13 07:46:00,
2013-08-13 03:51:00,81.2,76.6,29.93,SW,226,5.0,8.0,86,0.00,,CLR,0.00,0.00,VWS V14.01,2013-08-13 07:51:00,
2013-08-13 03:56:00,81.2,76.6,29.93,SW,222,6.0,8.0,86,0.00,,CLR,0.00,0.00,VWS V14.01,2013-08-13 07:56:00,
2013-08-13 04:01:00,81.1,76.5,29.93,SW,217,6.0,9.0,86,0.00,,CLR,0.00,0.00,VWS V14.01,2013-08-13 08:01:00,
2013-08-13 04:06:00,81.1,76.5,29.93,SW,224,5.0,13.0,86,0.00,,CLR,0.00,0.00,VWS V14.01,2013-08-13 08:06:00,
2013-08-13 04:11:00,81.0,76.4,29.93,WSW,251,7.0,8.0,86,0.00,,CLR,0.00,0.00,VWS V14.01,2013-08-13 08:11:00,
2013-08-13 04:16:00,81.0,76.4,29.93,WSW,254,8.0,11.0,86,0.00,,CLR,0.00,0.00,VWS V14.01,2013-08-13 08:16:00,
2013-08-13 04:21:00,81.0,76.4,29.93,SW,224,9.0,11.0,86,0.00,,CLR,0.00,0.00,VWS V14.01,2013-08-13 08:21:00,
2013-08-13 04:26:00,81.0,76.4,29.93,SSW,212,7.0,13.0,86,0.00,,CLR,0.00,0.00,VWS V14.01,2013-08-13 08:26:00,
2013-08-13 04:31:00,81.0,76.4,29.93,WSW,251,6.0,11.0,86,0.00,,CLR,0.00,0.00,VWS V14.01,2013-08-13 08:31:00,
2013-08-13 04:36:00,80.9,76.3,29.93,SW,221,6.0,12.0,86,0.00,,CLR,0.00,0.00,VWS V14.01,2013-08-13 08:36:00,
2013-08-13 04:41:00,80.9,76.3,29.93,SW,231,5.0,12.0,86,0.00,,CLR,0.00,0.00,VWS V14.01,2013-08-13 08:41:00,
2013-08-13 04:46:00,80.9,76.3,29.93,SW,236,3.0,9.0,86,0.00,,CLR,0.00,0.00,VWS V14.01,2013-08-13 08:46:00,
2013-08-13 04:51:00,80.9,76.7,29.93,WSW,254,9.0,10.0,87,0.00,,CLR,0.00,0.00,VWS V14.01,2013-08-13 08:51:00,
2013-08-13 04:56:00,80.8,76.2,29.93,WSW,254,15.0,15.0,86,0.00,,CLR,0.00,0.00,VWS V14.01,2013-08-13 08:56:00,
2013-08-13 05:01:00,80.8,76.2,29.93,WNW,292,7.0,10.0,86,0.00,,CLR,0.00,0.00,VWS V14.01,2013-08-13 09:01:00,
2013-08-13 05:06:00,80.8,76.2,29.93,West,270,4.0,11.0,86,0.00,,CLR,0.00,0.00,VWS V14.01,2013-08-13 09:06:00,
2013-08-13 05:11:00,80.8,76.2,29.93,WSW,252,6.0,10.0,86,0.00,,CLR,0.00,0.00,VWS V14.01,2013-08-13 09:11:00,
2013-08-13 05:16:00,80.7,76.1,29.93,SW,229,8.0,10.0,86,0.00,,CLR,0.00,0.00,VWS V14.01,2013-08-13 09:16:00,
2013-08-13 05:21:00,80.7,76.1,29.93,WSW,240,2.0,13.0,86,0.00,,CLR,0.00,0.00,VWS V14.01,2013-08-13 09:21:00,
2013-08-13 05:26:00,80.7,76.5,29.93,West,259,5.0,9.0,87,0.00,,CLR,0.00,0.00,VWS V14.01,2013-08-13 09:26:00,
2013-08-13 05:31:00,80.5,76.3,29.93,SW,234,5.0,11.0,87,0.00,,CLR,0.00,0.00,VWS V14.01,2013-08-13 09:31:00,
2013-08-13 05:36:00,80.5,76.3,29.93,SW,217,3.0,11.0,87,0.00,,CLR,0.00,0.00,VWS V14.01,2013-08-13 09:36:00,
2013-08-13 05:41:00,80.4,76.2,29.93,WNW,283,4.0,10.0,87,0.00,,CLR,0.00,0.00,VWS V14.01,2013-08-13 09:41:00,
2013-08-13 05:46:00,80.3,75.7,29.93,WSW,250,6.0,10.0,86,0.00,,CLR,0.00,0.00,VWS V14.01,2013-08-13 09:46:00,
2013-08-13 05:51:00,80.3,75.7,29.93,SW,215,6.0,9.0,86,0.00,,CLR,0.00,0.00,VWS V14.01,2013-08-13 09:51:00,
2013-08-13 05:56:00,80.2,75.6,29.93,SW,227,3.0,9.0,86,0.00,,CLR,0.00,0.00,VWS V14.01,2013-08-13 09:56:00,
2013-08-13 06:01:00,80.1,75.5,29.93,West,269,6.0,12.0,86,0.00,,CLR,0.00,0.00,VWS V14.01,2013-08-13 10:01:00,
2013-08-13 06:06:00,80.0,75.8,29.93,WNW,290,4.0,9.0,87,0.00,,CLR,0.00,0.00,VWS V14.01,2013-08-13 10:06:00,
2013-08-13 06:11:00,79.9,75.7,29.92,WNW,284,6.0,9.0,87,0.00,,CLR,0.00,0.00,VWS V14.01,2013-08-13 10:11:00,
2013-08-13 06:16:00,79.9,75.7,29.92,SW,217,2.0,8.0,87,0.00,,CLR,0.00,0.00,VWS V14.01,2013-08-13 10:16:00,
2013-08-13 06:21:00,79.8,75.6,29.92,NW,323,5.0,8.0,87,0.00,,CLR,0.00,0.00,VWS V14.01,2013-08-13 10:21:00,
2013-08-13 06:26:00,79.7,75.5,29.92,WNW,298,4.0,10.0,87,0.00,,CLR,0.00,0.00,VWS V14.01,2013-08-13 10:26:00,
2013-08-13 06:31:00,79.6,75.4,29.91,SW,230,8.0,8.0,87,0.00,,CLR,0.00,0.00,VWS V14.01,2013-08-13 10:31:00,
2013-08-13 06:36:00,79.6,75.4,29.91,SW,225,4.0,6.0,87,0.00,,CLR,0.00,0.00,VWS V14.01,2013-08-13 10:36:00,
2013-08-13 06:41:00,79.5,75.3,29.91,WNW,294,2.0,6.0,87,0.00,,CLR,0.00,0.00,VWS V14.01,2013-08-13 10:41:00,
2013-08-13 06:46:00,79.4,75.2,29.91,SW,231,4.0,6.0,87,0.00,,CLR,0.00,7.00,VWS V14.01,2013-08-13 10:46:00,
2013-08-13 06:51:00,79.3,75.4,29.91,West,275,2.0,4.0,88,0.00,,CLR,0.00,11.00,VWS V14.01,2013-08-13 10:51:00,
2013-08-13 06:56:00,79.3,75.4,29.91,WNW,299,5.0,9.0,88,0.00,,CLR,0.00,16.00,VWS V14.01,2013-08-13 10:56:00,
2013-08-13 07:01:00,79.2,75.3,29.91,SSW,211,4.0,4.0,88,0.00,,CLR,0.00,23.00,VWS V14.01,2013-08-13 11:01:00,
2013-08-13 07:06:00,79.1,75.2,29.92,SW,234,3.0,8.0,88,0.00,,CLR,0.00,30.00,VWS V14.01,2013-08-13 11:06:00,
2013-08-13 07:11:00,79.1,75.2,29.92,WSW,240,3.0,5.0,88,0.00,,CLR,0.00,35.00,VWS V14.01,2013-08-13 11:11:00,
2013-08-13 07:16:00,79.1,75.2,29.92,SW,236,1.0,7.0,88,0.00,,CLR,0.00,35.00,VWS V14.01,2013-08-13 11:16:00,
2013-08-13 07:21:00,79.0,75.2,29.92,SSW,196,3.0,5.0,88,0.00,,CLR,0.00,33.00,VWS V14.01,2013-08-13 11:21:00,
2013-08-13 07:26:00,79.0,75.2,29.92,WSW,257,3.0,6.0,88,0.00,,CLR,0.00,39.00,VWS V14.01,2013-08-13 11:26:00,
2013-08-13 07:31:00,79.0,75.2,29.92,West,268,3.0,8.0,88,0.00,,CLR,0.00,46.00,VWS V14.01,2013-08-13 11:31:00,
2013-08-13 07:36:00,79.0,75.2,29.92,WSW,238,4.0,4.0,88,0.00,,CLR,0.00,60.00,VWS V14.01,2013-08-13 11:36:00,
2013-08-13 07:41:00,79.0,75.2,29.92,WNW,284,4.0,6.0,88,0.00,,CLR,0.00,79.00,VWS V14.01,2013-08-13 11:41:00,
2013-08-13 07:46:00,79.1,75.2,29.92,SW,230,5.0,7.0,88,0.00,,CLR,0.00,102.00,VWS V14.01,2013-08-13 11:46:00,
2013-08-13 07:51:00,79.3,75.1,29.92,West,268,3.0,5.0,87,0.00,,CLR,0.00,107.00,VWS V14.01,2013-08-13 11:51:00,
2013-08-13 07:56:00,79.3,75.1,29.92,West,281,4.0,6.0,87,0.00,,CLR,0.00,104.00,VWS V14.01,2013-08-13 11:56:00,
2013-08-13 08:00:00,79.5,75.3,29.92,West,273,0.0,5.0,87,0.00,,SKC,0.00,123.00,VWS V14.01,2013-08-13 12:00:00,
2013-08-13 08:05:00,79.8,75.2,29.92,WNW,299,5.0,6.0,86,0.00,,SKC,0.00,130.00,VWS V14.01,2013-08-13 12:05:00,
2013-08-13 08:10:00,80.0,75.4,29.92,SSW,213,4.0,6.0,86,0.00,,SKC,0.00,118.00,VWS V14.01,2013-08-13 12:10:00,
2013-08-13 08:15:00,80.0,75.1,29.92,SW,224,3.0,6.0,85,0.00,,SKC,0.00,128.00,VWS V14.01,2013-08-13 12:15:00,
2013-08-13 08:20:00,80.0,75.1,29.92,West,261,2.0,5.0,85,0.00,,SKC,0.00,127.00,VWS V14.01,2013-08-13 12:20:00,
2013-08-13 08:25:00,80.3,75.4,29.92,SW,227,3.0,6.0,85,0.00,,SKC,0.00,134.00,VWS V14.01,2013-08-13 12:25:00,
2013-08-13 08:30:00,80.4,75.1,29.92,WSW,241,7.0,8.0,84,0.00,,SKC,0.00,253.00,VWS V14.01,2013-08-13 12:30:00,
2013-08-13 08:35:00,80.5,75.2,29.92,SSW,213,3.0,8.0,84,0.00,,SKC,0.00,162.00,VWS V14.01,2013-08-13 12:35:00,
2013-08-13 08:40:00,80.9,75.3,29.92,WSW,241,6.0,8.0,83,0.00,,SKC,0.00,353.00,VWS V14.01,2013-08-13 12:40:00,
2013-08-13 08:45:00,81.7,76.0,29.92,SSW,201,5.0,6.0,83,0.00,,SKC,0.00,359.00,VWS V14.01,2013-08-13 12:45:00,
2013-08-13 08:50:00,82.3,75.9,29.92,SSW,212,4.0,7.0,81,0.00,,SKC,0.00,376.00,VWS V14.01,2013-08-13 12:50:00,
2013-08-13 08:55:00,82.7,75.9,29.92,SW,215,5.0,7.0,80,0.00,,SKC,0.00,383.00,VWS V14.01,2013-08-13 12:55:00,
2013-08-13 09:00:00,83.3,76.5,29.93,WSW,238,5.0,9.0,80,0.00,,SKC,0.00,388.00,VWS V14.01,2013-08-13 13:00:00,
2013-08-13 09:05:00,83.3,75.7,29.93,SSW,200,8.0,10.0,78,0.00,,SKC,0.00,427.00,VWS V14.01,2013-08-13 13:05:00,
2013-08-13 09:10:00,82.9,76.1,29.93,SSW,194,5.0,9.0,80,0.00,,SKC,0.00,464.00,VWS V14.01,2013-08-13 13:10:00,
2013-08-13 09:15:00,83.2,76.8,29.93,SW,229,8.0,12.0,81,0.00,,SKC,0.00,487.00,VWS V14.01,2013-08-13 13:15:00,
2013-08-13 09:20:00,83.3,76.9,29.93,SW,229,8.0,9.0,81,0.00,,SKC,0.00,462.00,VWS V14.01,2013-08-13 13:20:00,
2013-08-13 09:25:00,83.0,76.9,29.93,SW,223,9.0,9.0,82,0.00,,SKC,0.00,475.00,VWS V14.01,2013-08-13 13:25:00,
2013-08-13 09:30:00,83.3,76.9,29.93,SSW,211,4.0,7.0,81,0.00,,SKC,0.00,464.00,VWS V14.01,2013-08-13 13:30:00,
2013-08-13 09:35:00,84.6,77.4,29.93,SW,220,11.0,11.0,79,0.00,,SKC,0.00,464.00,VWS V14.01,2013-08-13 13:35:00,
2013-08-13 09:40:00,85.2,77.2,29.93,West,271,2.0,10.0,77,0.00,,SKC,0.00,475.00,VWS V14.01,2013-08-13 13:40:00,
2013-08-13 09:45:00,85.4,77.0,29.93,West,278,3.0,8.0,76,0.00,,SKC,0.00,462.00,VWS V14.01,2013-08-13 13:45:00,
2013-08-13 09:50:00,85.6,77.2,29.93,WNW,284,3.0,8.0,76,0.00,,SKC,0.00,490.00,VWS V14.01,2013-08-13 13:50:00,
2013-08-13 09:55:00,86.0,77.2,29.93,SW,234,7.0,11.0,75,0.00,,SKC,0.00,522.00,VWS V14.01,2013-08-13 13:55:00,
2013-08-13 10:00:00,86.1,77.2,29.93,WNW,303,5.0,10.0,75,0.00,,SKC,0.00,543.00,VWS V14.01,2013-08-13 14:00:00,
2013-08-13 10:05:00,86.3,77.4,29.93,NW,305,4.0,10.0,75,0.00,,SKC,0.00,555.00,VWS V14.01,2013-08-13 14:05:00,
2013-08-13 10:10:00,86.8,77.5,29.93,WSW,254,7.0,11.0,74,0.00,,SKC,0.00,612.00,VWS V14.01,2013-08-13 14:10:00,
2013-08-13 10:15:00,86.5,77.2,29.93,SW,233,6.0,11.0,74,0.00,,SKC,0.00,584.00,VWS V14.01,2013-08-13 14:15:00,
2013-08-13 10:20:00,86.9,77.6,29.93,SW,225,4.0,12.0,74,0.00,,CLR,0.00,643.00,VWS V14.01,2013-08-13 14:20:00,
2013-08-13 10:25:00,87.3,77.6,29.93,SW,234,9.0,10.0,73,0.00,,CLR,0.00,601.00,VWS V14.01,2013-08-13 14:25:00,
2013-08-13 10:30:00,87.2,77.5,29.93,West,275,6.0,10.0,73,0.00,,CLR,0.00,645.00,VWS V14.01,2013-08-13 14:30:00,
2013-08-13 10:35:00,87.5,77.8,29.93,West,279,7.0,9.0,73,0.00,,CLR,0.00,700.00,VWS V14.01,2013-08-13 14:35:00,
2013-08-13 10:40:00,87.7,78.0,29.93,WNW,297,5.0,7.0,73,0.00,,CLR,0.00,705.00,VWS V14.01,2013-08-13 14:40:00,
2013-08-13 10:45:00,88.6,78.0,29.93,SSW,206,7.0,11.0,71,0.00,,CLR,0.00,752.00,VWS V14.01,2013-08-13 14:45:00,
2013-08-13 10:50:00,88.8,78.2,29.93,WSW,244,3.0,14.0,71,0.00,,CLR,0.00,703.00,VWS V14.01,2013-08-13 14:50:00,
2013-08-13 10:55:00,88.8,78.2,29.93,NNW,339,3.0,15.0,71,0.00,,CLR,0.00,758.00,VWS V14.01,2013-08-13 14:55:00,
2013-08-13 11:00:00,88.9,77.8,29.93,SW,219,6.0,13.0,70,0.00,,CLR,0.00,671.00,VWS V14.01,2013-08-13 15:00:00,
2013-08-13 11:05:00,89.1,78.5,29.93,West,281,4.0,9.0,71,0.00,,CLR,0.00,686.00,VWS V14.01,2013-08-13 15:05:00,
2013-08-13 11:10:00,89.8,78.7,29.94,WSW,238,3.0,8.0,70,0.00,,CLR,0.00,779.00,VWS V14.01,2013-08-13 15:10:00,
2013-08-13 11:15:00,89.8,77.8,29.94,SSW,194,5.0,10.0,68,0.00,,CLR,0.00,798.00,VWS V14.01,2013-08-13 15:15:00,
2013-08-13 11:20:00,89.5,77.6,29.93,SSW,199,5.0,11.0,68,0.00,,CLR,0.00,821.00,VWS V14.01,2013-08-13 15:20:00,
2013-08-13 11:25:00,89.9,79.2,29.93,SW,223,4.0,8.0,71,0.00,,CLR,0.00,807.00,VWS V14.01,2013-08-13 15:25:00,
2013-08-13 11:30:00,88.6,78.8,29.93,SSW,206,5.0,10.0,73,0.00,,CLR,0.00,851.00,VWS V14.01,2013-08-13 15:30:00,
2013-08-13 11:35:00,88.1,78.8,29.93,SSW,211,5.0,10.0,74,0.00,,CLR,0.00,287.00,VWS V14.01,2013-08-13 15:35:00,
2013-08-13 11:40:00,88.6,78.4,29.93,SSW,211,7.0,10.0,72,0.00,,CLR,0.00,900.00,VWS V14.01,2013-08-13 15:40:00,
2013-08-13 11:45:00,88.1,78.8,29.93,SSW,207,7.0,8.0,74,0.00,,CLR,0.00,248.00,VWS V14.01,2013-08-13 15:45:00,
2013-08-13 11:50:00,87.5,78.2,29.93,South,181,10.0,11.0,74,0.00,,CLR,0.00,316.00,VWS V14.01,2013-08-13 15:50:00,
2013-08-13 11:55:00,86.7,78.2,29.93,WSW,252,7.0,11.0,76,0.00,,CLR,0.00,895.00,VWS V14.01,2013-08-13 15:55:00,
2013-08-13 12:00:00,87.4,78.5,29.92,SW,216,5.0,10.0,75,0.00,,FEW031,0.00,904.00,VWS V14.01,2013-08-13 16:00:00,
2013-08-13 12:05:00,87.2,78.7,29.92,SW,215,7.0,15.0,76,0.00,,FEW031,0.00,225.00,VWS V14.01,2013-08-13 16:05:00,
2013-08-13 12:11:00,86.5,78.8,29.92,SW,218,5.0,11.0,78,0.00,,FEW031,0.00,879.00,VWS V14.01,2013-08-13 16:11:00,
2013-08-13 12:16:00,86.8,79.1,29.92,SW,232,9.0,13.0,78,0.00,,FEW031,0.00,902.00,VWS V14.01,2013-08-13 16:16:00,
2013-08-13 12:21:00,86.7,78.6,29.92,SSW,210,6.0,14.0,77,0.00,,FEW031,0.00,902.00,VWS V14.01,2013-08-13 16:21:00,
2013-08-13 12:26:00,87.0,78.9,29.92,SW,236,5.0,12.0,77,0.00,,FEW031,0.00,960.00,VWS V14.01,2013-08-13 16:26:00,
2013-08-13 12:31:00,87.0,79.3,29.92,South,190,7.0,13.0,78,0.00,,FEW031,0.00,1014.00,VWS V14.01,2013-08-13 16:31:00,
2013-08-13 12:36:00,88.1,78.8,29.92,SW,226,2.0,10.0,74,0.00,,FEW031,0.00,1020.00,VWS V14.01,2013-08-13 16:36:00,
2013-08-13 12:41:00,88.9,79.1,29.91,WSW,238,4.0,7.0,73,0.00,,FEW031,0.00,993.00,VWS V14.01,2013-08-13 16:41:00,
2013-08-13 12:46:00,90.1,79.9,29.91,SSW,202,5.0,10.0,72,0.00,,FEW031,0.00,1090.00,VWS V14.01,2013-08-13 16:46:00,
2013-08-13 12:50:00,91.7,77.8,29.90,SW,217,6.0,15.0,64,0.00,,FEW031,0.00,1000.00,VWS V14.01,2013-08-13 16:50:00,
2013-08-13 12:55:00,93.5,77.5,29.90,WSW,254,7.0,12.0,60,0.00,,FEW031,0.00,967.00,VWS V14.01,2013-08-13 16:55:00,
2013-08-13 13:00:00,93.7,77.2,29.90,SW,229,11.0,19.0,59,0.00,,FEW031,0.00,1030.00,VWS V14.01,2013-08-13 17:00:00,
2013-08-13 13:05:00,93.5,76.0,29.90,West,268,6.0,13.0,57,0.00,,FEW031,0.00,186.00,VWS V14.01,2013-08-13 17:05:00,
2013-08-13 13:12:00,93.3,76.3,29.90,NNW,327,4.0,10.0,58,0.00,,SCT038,0.00,947.00,VWS V14.01,2013-08-13 17:12:00,
2013-08-13 13:17:00,93.8,76.3,29.89,SW,218,7.0,10.0,57,0.00,,SCT038,0.00,997.00,VWS V14.01,2013-08-13 17:17:00,
2013-08-13 13:22:00,94.1,76.0,29.89,SW,217,6.0,14.0,56,0.00,,SCT038,0.00,1078.00,VWS V14.01,2013-08-13 17:22:00,
2013-08-13 13:27:00,94.2,75.0,29.89,WNW,284,14.0,14.0,54,0.00,,SCT038,0.00,1118.00,VWS V14.01,2013-08-13 17:27:00,
2013-08-13 13:32:00,93.6,75.0,29.89,SSW,200,5.0,11.0,55,0.00,,SCT038,0.00,265.00,VWS V14.01,2013-08-13 17:32:00,
2013-08-13 13:37:00,92.7,75.2,29.88,SSW,200,4.0,10.0,57,0.00,,SCT038,0.00,269.00,VWS V14.01,2013-08-13 17:37:00,
2013-08-13 13:42:00,93.2,75.7,29.88,SSW,209,5.0,7.0,57,0.00,,SCT038,0.00,339.00,VWS V14.01,2013-08-13 17:42:00,
2013-08-13 13:47:00,93.1,77.7,29.88,West,264,6.0,7.0,61,0.00,,SCT038,0.00,316.00,VWS V14.01,2013-08-13 17:47:00,
2013-08-13 13:52:00,91.8,76.4,29.88,WSW,248,7.0,7.0,61,0.00,,SCT038,0.00,949.00,VWS V14.01,2013-08-13 17:52:00,
2013-08-13 13:57:00,92.8,76.9,29.87,WSW,255,5.0,5.0,60,0.00,,SCT038,0.00,912.00,VWS V14.01,2013-08-13 17:57:00,
2013-08-13 14:02:00,93.8,76.8,29.87,SW,232,3.0,7.0,58,0.00,,SCT045,0.00,995.00,VWS V14.01,2013-08-13 18:02:00,
2013-08-13 14:07:00,94.7,76.6,29.86,West,273,9.0,9.0,56,0.00,,SCT045,0.00,297.00,VWS V14.01,2013-08-13 18:07:00,
2013-08-13 14:12:00,94.4,75.8,29.86,SSW,210,5.0,11.0,55,0.00,,SCT045,0.00,990.00,VWS V14.01,2013-08-13 18:12:00,
2013-08-13 14:17:00,95.0,75.2,29.86,West,279,1.0,10.0,53,0.00,,SCT045,0.00,1013.00,VWS V14.01,2013-08-13 18:17:00,
2013-08-13 14:22:00,95.2,75.4,29.86,NNE,31,3.0,7.0,53,0.00,,SCT045,0.00,932.00,VWS V14.01,2013-08-13 18:22:00,
2013-08-13 14:27:00,95.1,75.8,29.86,SW,230,7.0,7.0,54,0.00,,SCT045,0.00,979.00,VWS V14.01,2013-08-13 18:27:00,
2013-08-13 14:32:00,95.2,75.4,29.86,SW,233,8.0,10.0,53,0.00,,SCT045,0.00,817.00,VWS V14.01,2013-08-13 18:32:00,
2013-08-13 14:37:00,95.0,75.2,29.86,SW,216,10.0,11.0,53,0.00,,SCT045,0.00,923.00,VWS V14.01,2013-08-13 18:37:00,
2013-08-13 14:42:00,95.0,75.8,29.86,West,271,3.0,6.0,54,0.00,,SCT045,0.00,893.00,VWS V14.01,2013-08-13 18:42:00,
2013-08-13 14:47:00,94.6,74.8,29.86,North,5,7.0,7.0,53,0.00,,SCT045,0.00,680.00,VWS V14.01,2013-08-13 18:47:00,
2013-08-13 14:52:00,94.1,77.1,29.85,SW,215,6.0,8.0,58,0.00,,SCT045,0.00,824.00,VWS V14.01,2013-08-13 18:52:00,
2013-08-13 14:57:00,91.3,77.4,29.85,WSW,239,8.0,9.0,64,0.00,,SCT045,0.00,638.00,VWS V14.01,2013-08-13 18:57:00,
2013-08-13 15:02:00,89.6,77.6,29.86,South,191,13.0,13.0,68,0.00,,SCT050,0.00,809.00,VWS V14.01,2013-08-13 19:02:00,
2013-08-13 15:07:00,87.9,77.8,29.85,SSW,207,6.0,12.0,72,0.00,,SCT050,0.00,432.00,VWS V14.01,2013-08-13 19:07:00,
2013-08-13 15:12:00,86.8,77.9,29.86,SSW,211,8.0,11.0,75,0.00,,SCT050,0.00,867.00,VWS V14.01,2013-08-13 19:12:00,
2013-08-13 15:17:00,86.6,78.5,29.85,SW,234,14.0,14.0,77,0.00,,SCT050,0.00,244.00,VWS V14.01,2013-08-13 19:17:00,
2013-08-13 15:22:00,86.2,78.5,29.85,SW,230,13.0,18.0,78,0.00,,SCT050,0.00,805.00,VWS V14.01,2013-08-13 19:22:00,
2013-08-13 15:27:00,86.0,78.7,29.85,SSW,210,11.0,13.0,79,0.00,,SCT050,0.00,633.00,VWS V14.01,2013-08-13 19:27:00,
2013-08-13 15:32:00,86.1,78.8,29.85,SW,229,12.0,15.0,79,0.00,,SCT050,0.00,814.00,VWS V14.01,2013-08-13 19:32:00,
2013-08-13 15:37:00,86.5,78.8,29.84,SW,230,10.0,10.0,78,0.00,,SCT050,0.00,817.00,VWS V14.01,2013-08-13 19:37:00,
2013-08-13 15:42:00,86.0,78.3,29.84,South,178,10.0,18.0,78,0.00,,SCT050,0.00,174.00,VWS V14.01,2013-08-13 19:42:00,
2013-08-13 15:47:00,85.2,78.3,29.84,SW,226,7.0,9.0,80,0.00,,SCT050,0.00,178.00,VWS V14.01,2013-08-13 19:47:00,
2013-08-13 15:52:00,84.9,78.4,29.84,SW,223,10.0,11.0,81,0.00,,SCT050,0.00,230.00,VWS V14.01,2013-08-13 19:52:00,
2013-08-13 15:57:00,85.3,78.8,29.84,SSW,206,15.0,15.0,81,0.00,,SCT050,0.00,657.00,VWS V14.01,2013-08-13 19:57:00,
2013-08-13 16:02:00,85.2,78.3,29.84,SW,232,13.0,13.0,80,0.00,,SCT050,0.00,480.00,VWS V14.01,2013-08-13 20:02:00,
2013-08-13 16:07:00,85.2,78.7,29.84,SSW,213,9.0,10.0,81,0.00,,SCT050,0.00,536.00,VWS V14.01,2013-08-13 20:07:00,
2013-08-13 16:12:00,85.4,78.9,29.83,SSW,192,7.0,7.0,81,0.00,,SCT050,0.00,531.00,VWS V14.01,2013-08-13 20:12:00,
2013-08-13 16:17:00,85.3,78.8,29.83,SW,217,8.0,8.0,81,0.00,,SCT050,0.00,629.00,VWS V14.01,2013-08-13 20:17:00,
2013-08-13 16:22:00,85.4,78.9,29.83,SSW,197,7.0,9.0,81,0.00,,SCT050,0.00,659.00,VWS V14.01,2013-08-13 20:22:00,
2013-08-13 16:27:00,85.9,79.0,29.83,SW,232,8.0,11.0,80,0.00,,SCT050,0.00,649.00,VWS V14.01,2013-08-13 20:27:00,
2013-08-13 16:32:00,86.1,79.2,29.83,SSW,207,12.0,12.0,80,0.00,,SCT050,0.00,656.00,VWS V14.01,2013-08-13 20:32:00,
2013-08-13 16:37:00,86.1,79.2,29.82,SW,227,7.0,8.0,80,0.00,,SCT050,0.00,645.00,VWS V14.01,2013-08-13 20:37:00,
2013-08-13 16:42:00,85.8,78.9,29.82,SSW,211,7.0,9.0,80,0.00,,SCT050,0.00,599.00,VWS V14.01,2013-08-13 20:42:00,
2013-08-13 16:47:00,85.9,79.0,29.82,SSW,213,8.0,11.0,80,0.00,,SCT050,0.00,580.00,VWS V14.01,2013-08-13 20:47:00,
2013-08-13 16:52:00,86.3,79.4,29.82,SSW,196,7.0,7.0,80,0.00,,SCT050,0.00,570.00,VWS V14.01,2013-08-13 20:52:00,
2013-08-13 16:57:00,86.6,79.3,29.82,SW,225,10.0,11.0,79,0.00,,SCT050,0.00,554.00,VWS V14.01,2013-08-13 20:57:00,
2013-08-13 17:02:00,86.5,79.2,29.82,SSW,199,9.0,9.0,79,0.00,,SCT050,0.00,536.00,VWS V14.01,2013-08-13 21:02:00,
2013-08-13 17:07:00,86.6,79.3,29.82,SW,217,13.0,13.0,79,0.00,,SCT050,0.00,522.00,VWS V14.01,2013-08-13 21:07:00,
2013-08-13 17:12:00,86.1,78.8,29.82,SSW,210,10.0,12.0,79,0.00,,SCT050,0.00,501.00,VWS V14.01,2013-08-13 21:12:00,
2013-08-13 17:17:00,86.2,79.3,29.82,SSW,209,13.0,14.0,80,0.00,,SCT050,0.00,490.00,VWS V14.01,2013-08-13 21:17:00,
2013-08-13 17:22:00,86.0,79.1,29.82,SW,224,7.0,9.0,80,0.00,,SCT050,0.00,499.00,VWS V14.01,2013-08-13 21:22:00,
2013-08-13 17:27:00,86.1,79.2,29.82,SSW,206,7.0,10.0,80,0.00,,SCT050,0.00,487.00,VWS V14.01,2013-08-13 21:27:00,
2013-08-13 17:32:00,85.9,79.4,29.82,South,190,11.0,11.0,81,0.00,,SCT050,0.00,494.00,VWS V14.01,2013-08-13 21:32:00,
2013-08-13 17:37:00,85.6,79.1,29.82,SSW,206,10.0,11.0,81,0.00,,SCT050,0.00,459.00,VWS V14.01,2013-08-13 21:37:00,
2013-08-13 17:42:00,85.4,79.3,29.82,South,184,9.0,9.0,82,0.00,,SCT050,0.00,434.00,VWS V14.01,2013-08-13 21:42:00,
2013-08-13 17:47:00,85.4,79.3,29.82,SSW,207,11.0,13.0,82,0.00,,SCT050,0.00,406.00,VWS V14.01,2013-08-13 21:47:00,
2013-08-13 17:52:00,85.2,79.1,29.82,WSW,240,11.0,11.0,82,0.00,,SCT050,0.00,399.00,VWS V14.01,2013-08-13 21:52:00,
2013-08-13 17:57:00,85.0,79.3,29.83,SW,219,16.0,16.0,83,0.00,,SCT050,0.00,376.00,VWS V14.01,2013-08-13 21:57:00,
2013-08-13 18:02:00,84.7,79.0,29.82,SW,233,15.0,15.0,83,0.00,,SCT050,0.00,169.00,VWS V14.01,2013-08-13 22:02:00,
2013-08-13 18:07:00,84.3,78.9,29.82,SW,215,13.0,13.0,84,0.00,,SCT050,0.00,123.00,VWS V14.01,2013-08-13 22:07:00,
2013-08-13 18:12:00,84.0,79.0,29.82,SW,221,8.0,12.0,85,0.00,,SCT050,0.00,139.00,VWS V14.01,2013-08-13 22:12:00,
2013-08-13 18:17:00,83.9,78.9,29.82,SW,223,15.0,15.0,85,0.00,,SCT050,0.00,287.00,VWS V14.01,2013-08-13 22:17:00,
2013-08-13 18:22:00,83.9,78.9,29.82,SSW,213,7.0,10.0,85,0.00,,SCT050,0.00,79.00,VWS V14.01,2013-08-13 22:22:00,
2013-08-13 18:27:00,83.9,78.9,29.82,SW,219,7.0,9.0,85,0.00,,SCT050,0.00,237.00,VWS V14.01,2013-08-13 22:27:00,
2013-08-13 18:32:00,84.0,79.0,29.82,SW,226,11.0,12.0,85,0.00,,SCT050,0.00,221.00,VWS V14.01,2013-08-13 22:32:00,
2013-08-13 18:37:00,84.3,78.9,29.81,SSW,202,11.0,12.0,84,0.00,,SCT050,0.00,74.00,VWS V14.01,2013-08-13 22:37:00,
2013-08-13 18:42:00,84.2,78.8,29.81,SSW,198,7.0,8.0,84,0.00,,SCT050,0.00,125.00,VWS V14.01,2013-08-13 22:42:00,
2013-08-13 18:47:00,84.2,78.8,29.81,SSW,211,11.0,11.0,84,0.00,,SCT050,0.00,118.00,VWS V14.01,2013-08-13 22:47:00,
2013-08-13 18:52:00,84.2,78.8,29.81,SSW,209,7.0,11.0,84,0.00,,SCT050,0.00,91.00,VWS V14.01,2013-08-13 22:52:00,
2013-08-13 18:57:00,84.1,78.8,29.81,SSW,204,9.0,13.0,84,0.00,,SCT050,0.00,37.00,VWS V14.01,2013-08-13 22:57:00,
2013-08-13 19:02:00,83.8,78.4,29.81,SW,215,9.0,14.0,84,0.00,,SCT050,0.00,28.00,VWS V14.01,2013-08-13 23:02:00,
2013-08-13 19:07:00,83.4,78.4,29.81,SW,221,6.0,6.0,85,0.00,,SCT050,0.00,25.00,VWS V14.01,2013-08-13 23:07:00,
2013-08-13 19:12:00,83.2,78.2,29.81,SSW,206,10.0,11.0,85,0.00,,SCT050,0.00,23.00,VWS V14.01,2013-08-13 23:12:00,
2013-08-13 19:17:00,83.3,78.3,29.81,WNW,283,4.0,5.0,85,0.00,,SCT050,0.00,21.00,VWS V14.01,2013-08-13 23:17:00,
2013-08-13 19:22:00,83.5,78.5,29.81,SW,223,8.0,8.0,85,0.00,,SCT050,0.00,18.00,VWS V14.01,2013-08-13 23:22:00,
2013-08-13 19:27:00,83.8,78.4,29.81,SSW,213,12.0,12.0,84,0.00,,SCT050,0.00,16.00,VWS V14.01,2013-08-13 23:27:00,
2013-08-13 19:32:00,83.9,78.2,29.81,SW,221,7.0,7.0,83,0.00,,SCT050,0.00,14.00,VWS V14.01,2013-08-13 23:32:00,
2013-08-13 19:37:00,83.5,78.2,29.81,SW,234,7.0,13.0,84,0.00,,SCT050,0.00,11.00,VWS V14.01,2013-08-13 23:37:00,
2013-08-13 19:42:00,82.9,77.9,29.82,SW,216,10.0,10.0,85,0.00,,SCT050,0.00,9.00,VWS V14.01,2013-08-13 23:42:00,
2013-08-13 19:47:00,82.6,77.6,29.82,SW,229,10.0,13.0,85,0.00,,SCT050,0.00,7.00,VWS V14.01,2013-08-13 23:47:00,
2013-08-13 19:52:00,82.4,77.8,29.81,SSW,204,12.0,12.0,86,0.00,,SCT050,0.00,5.00,VWS V14.01,2013-08-13 23:52:00,
2013-08-13 19:57:00,82.2,77.6,29.82,SSW,213,9.0,9.0,86,0.00,,SCT050,0.00,0.00,VWS V14.01,2013-08-13 23:57:00,
2013-08-13 20:02:00,82.2,77.6,29.82,SW,217,7.0,11.0,86,0.00,,CLR,0.00,0.00,VWS V14.01,2013-08-14 00:02:00,
2013-08-13 20:07:00,82.3,77.7,29.82,SSW,211,9.0,11.0,86,0.00,,CLR,0.00,0.00,VWS V14.01,2013-08-14 00:07:00,
2013-08-13 20:11:00,82.2,77.6,29.82,SW,233,10.0,15.0,86,0.00,,CLR,0.00,0.00,VWS V14.01,2013-08-14 00:11:00,
2013-08-13 20:16:00,82.1,77.8,29.82,SSW,213,9.0,15.0,87,0.00,,CLR,0.00,0.00,VWS V14.01,2013-08-14 00:16:00,
2013-08-13 20:21:00,82.1,77.8,29.82,SSW,201,11.0,16.0,87,0.00,,CLR,0.00,0.00,VWS V14.01,2013-08-14 00:21:00,
2013-08-13 20:26:00,82.1,77.8,29.83,SW,221,8.0,11.0,87,0.00,,CLR,0.00,0.00,VWS V14.01,2013-08-14 00:26:00,
2013-08-13 20:31:00,82.0,78.1,29.83,SSW,210,9.0,15.0,88,0.00,,CLR,0.00,0.00,VWS V14.01,2013-08-14 00:31:00,
2013-08-13 20:36:00,82.0,78.1,29.83,SW,223,11.0,14.0,88,0.00,,CLR,0.00,0.00,VWS V14.01,2013-08-14 00:36:00,
2013-08-13 20:41:00,81.9,78.0,29.83,SSW,204,7.0,13.0,88,0.00,,CLR,0.00,0.00,VWS V14.01,2013-08-14 00:41:00,
2013-08-13 20:46:00,82.0,78.1,29.83,SW,221,6.0,12.0,88,0.00,,CLR,0.00,0.00,VWS V14.01,2013-08-14 00:46:00,
2013-08-13 20:51:00,81.8,77.9,29.83,SW,222,11.0,14.0,88,0.00,,CLR,0.00,0.00,VWS V14.01,2013-08-14 00:51:00,
2013-08-13 20:56:00,81.8,78.2,29.83,SSW,202,7.0,14.0,89,0.00,,CLR,0.00,0.00,VWS V14.01,2013-08-14 00:56:00,
2013-08-13 21:01:00,81.7,78.2,29.83,SW,219,5.0,12.0,89,0.00,,CLR,0.00,0.00,VWS V14.01,2013-08-14 01:01:00,
2013-08-13 21:06:00,81.7,78.2,29.84,WSW,242,8.0,14.0,89,0.00,,CLR,0.00,0.00,VWS V14.01,2013-08-14 01:06:00,
2013-08-13 21:11:00,81.8,78.2,29.83,SW,234,4.0,12.0,89,0.00,,CLR,0.00,0.00,VWS V14.01,2013-08-14 01:11:00,
2013-08-13 21:16:00,81.8,78.2,29.84,South,179,14.0,14.0,89,0.00,,CLR,0.00,0.00,VWS V14.01,2013-08-14 01:16:00,
2013-08-13 21:21:00,81.8,78.2,29.84,WSW,246,8.0,11.0,89,0.00,,CLR,0.00,0.00,VWS V14.01,2013-08-14 01:21:00,
2013-08-13 21:26:00,81.8,78.2,29.84,SW,234,11.0,11.0,89,0.00,,CLR,0.00,0.00,VWS V14.01,2013-08-14 01:26:00,
2013-08-13 21:31:00,81.8,78.2,29.84,SSW,210,7.0,10.0,89,0.00,,CLR,0.00,0.00,VWS V14.01,2013-08-14 01:31:00,
2013-08-13 21:36:00,81.8,78.2,29.84,SSW,209,5.0,11.0,89,0.00,,CLR,0.00,0.00,VWS V14.01,2013-08-14 01:36:00,
2013-08-13 21:41:00,81.9,78.3,29.84,SSW,195,9.0,10.0,89,0.00,,CLR,0.00,0.00,VWS V14.01,2013-08-14 01:41:00,
2013-08-13 21:46:00,81.8,78.2,29.84,SSW,202,4.0,11.0,89,0.00,,CLR,0.00,0.00,VWS V14.01,2013-08-14 01:46:00,
2013-08-13 21:51:00,81.6,78.1,29.84,SSW,212,7.0,11.0,89,0.00,,CLR,0.00,0.00,VWS V14.01,2013-08-14 01:51:00,
2013-08-13 21:56:00,81.4,77.8,29.84,SSW,199,7.0,12.0,89,0.00,,CLR,0.00,0.00,VWS V14.01,2013-08-14 01:56:00,
2013-08-13 22:01:00,81.2,77.7,29.84,SW,222,6.0,11.0,89,0.00,,CLR,0.00,0.00,VWS V14.01,2013-08-14 02:01:00,
2013-08-13 22:06:00,81.1,77.6,29.84,SSW,209,6.0,12.0,89,0.00,,CLR,0.00,0.00,VWS V14.01,2013-08-14 02:06:00,
2013-08-13 22:11:00,81.1,77.9,29.85,SW,223,7.0,10.0,90,0.00,,CLR,0.00,0.00,VWS V14.01,2013-08-14 02:11:00,
2013-08-13 22:16:00,81.1,77.9,29.84,SSW,211,4.0,8.0,90,0.00,,CLR,0.00,0.00,VWS V14.01,2013-08-14 02:16:00,
2013-08-13 22:21:00,81.1,77.9,29.84,SSW,210,7.0,7.0,90,0.00,,CLR,0.00,0.00,VWS V14.01,2013-08-14 02:21:00,
2013-08-13 22:26:00,81.2,78.0,29.85,SSW,213,3.0,7.0,90,0.00,,CLR,0.00,0.00,VWS V14.01,2013-08-14 02:26:00,
2013-08-13 22:31:00,81.2,78.0,29.85,SSW,211,4.0,6.0,90,0.00,,CLR,0.00,0.00,VWS V14.01,2013-08-14 02:31:00,
2013-08-13 22:36:00,81.2,78.0,29.85,SSW,202,7.0,10.0,90,0.00,,CLR,0.00,0.00,VWS V14.01,2013-08-14 02:36:00,
2013-08-13 22:41:00,81.1,77.9,29.85,SSW,209,7.0,8.0,90,0.00,,CLR,0.00,0.00,VWS V14.01,2013-08-14 02:41:00,
2013-08-13 22:46:00,80.9,77.7,29.85,SW,219,4.0,9.0,90,0.00,,CLR,0.00,0.00,VWS V14.01,2013-08-14 02:46:00,
2013-08-13 22:51:00,80.9,77.7,29.85,SSW,199,6.0,11.0,90,0.00,,CLR,0.00,0.00,VWS V14.01,2013-08-14 02:51:00,
2013-08-13 22:56:00,80.9,77.7,29.84,SW,221,6.0,10.0,90,0.00,,CLR,0.00,0.00,VWS V14.01,2013-08-14 02:56:00,
2013-08-13 23:01:00,81.0,77.8,29.85,SW,215,5.0,11.0,90,0.00,,CLR,0.00,0.00,VWS V14.01,2013-08-14 03:01:00,
2013-08-13 23:06:00,80.9,77.7,29.84,SW,226,7.0,10.0,90,0.00,,CLR,0.00,0.00,VWS V14.01,2013-08-14 03:06:00,
2013-08-13 23:11:00,80.9,77.7,29.85,SSW,200,6.0,10.0,90,0.00,,CLR,0.00,0.00,VWS V14.01,2013-08-14 03:11:00,
2013-08-13 23:16:00,80.9,77.7,29.85,SW,229,8.0,10.0,90,0.00,,CLR,0.00,0.00,VWS V14.01,2013-08-14 03:16:00,
2013-08-13 23:21:00,80.8,77.6,29.84,SSW,205,5.0,12.0,90,0.00,,CLR,0.00,0.00,VWS V14.01,2013-08-14 03:21:00,
2013-08-13 23:26:00,80.8,77.6,29.84,SSW,210,7.0,10.0,90,0.00,,CLR,0.00,0.00,VWS V14.01,2013-08-14 03:26:00,
2013-08-13 23:31:00,80.7,77.5,29.85,SW,229,6.0,12.0,90,0.00,,CLR,0.00,0.00,VWS V14.01,2013-08-14 03:31:00,
2013-08-13 23:36:00,80.7,77.5,29.85,SW,219,6.0,12.0,90,0.00,,CLR,0.00,0.00,VWS V14.01,2013-08-14 03:36:00,
2013-08-13 23:41:00,80.8,77.6,29.85,SSW,205,6.0,10.0,90,0.00,,FEW120,0.00,0.00,VWS V14.01,2013-08-14 03:41:00,
2013-08-13 23:46:00,80.8,77.6,29.85,SW,230,8.0,11.0,90,0.00,,FEW120,0.00,0.00,VWS V14.01,2013-08-14 03:46:00,
2013-08-13 23:51:00,80.9,77.7,29.85,SSW,207,4.0,10.0,90,0.00,,FEW120,0.00,0.00,VWS V14.01,2013-08-14 03:51:00,
2013-08-13 23:56:00,81.0,77.8,29.85,SW,221,7.0,9.0,90,0.00,,FEW120,0.00,0.00,VWS V14.01,2013-08-14 03:56:00,